CAPE
0 0 0 0 0 0 0 0 0 0 0 0 0 0 0 0 0 0 0 0 0 0 0 0 0 0 0 0 0 0 0 0 0 0 1 182 83 54 17 13 39 121 421 945 881
0 0 0 0 0 0 0 0 0 0 0 0 0 0 0 0 0 0 0 0 0 0 0 0 0 0 0 0 0 0 0 0 0 0 19 136 71 77 25 30 53 363 1128 980 923
0 0 0 0 0 0 0 0 0 0 0 0 0 0 0 0 0 0 0 0 0 0 0 0 0 0 0 0 0 0 0 0 1 0 123 105 65 44 44 58 28 224 204 93 112
0 0 0 0 0 0 0 0 0 0 0 0 0 0 0 0 0 0 0 0 0 0 0 0 0 0 0 0 0 0 0 0 124 131 21 27 41 2 14 16 0 0 0 13 50
0 0 0 0 0 0 0 0 0 0 0 0 0 0 0 0 0 0 0 0 0 0 0 0 0 0 0 0 0 0 0 206 267 98 26 20 3 5 0 0 0 0 0 0 0
0 0 0 0 0 0 0 0 0 0 0 0 0 0 0 0 0 0 0 0 0 0 0 0 0 0 0 0 0 0 0 212 185 111 4 14 0 0 0 0 0 0 0 0 0
0 0 0 0 0 0 0 0 0 0 0 0 0 0 0 0 0 0 0 0 0 0 0 0 0 0 0 0 0 0 0 195 203 99 61 0 0 0 0 0 0 0 0 0 0
0 0 0 0 0 0 0 0 0 0 0 0 0 0 0 0 0 0 0 0 0 0 0 0 0 0 0 0 0 0 1 0 206 32 0 49 69 0 0 0 0 0 0 0 0
0 0 0 0 0 0 0 0 0 0 0 0 0 0 0 0 0 0 0 0 0 0 0 0 0 0 0 0 0 0 0 2 264 1 0 18 50 0 0 0 0 0 0 0 0
0 0 0 0 0 0 0 0 0 0 0 0 0 0 0 0 0 0 0 0 0 0 0 0 0 0 0 0 0 0 0 0 8 141 0 19 25 0 0 0 0 0 0 0 0
0 0 0 0 0 0 0 0 0 0 0 0 0 0 0 0 0 0 0 0 0 0 0 0 0 0 0 0 0 0 0 0 0 35 34 15 48 0 0 0 0 0 0 0 0
0 0 0 0 0 0 0 0 0 0 0 0 0 0 0 0 0 0 0 0 0 0 0 0 0 0 0 0 0 0 0 0 0 53 50 29 0 0 0 0 0 0 0 0 0
0 0 0 0 0 0 0 0 0 0 0 0 0 0 0 0 0 0 0 0 0 0 0 0 0 0 0 0 0 0 0 0 0 0 0 0 0 0 0 0 0 0 0 0 0
0 0 0 0 0 0 0 0 0 0 0 0 0 0 0 0 0 0 0 0 0 0 0 0 0 0 0 0 0 0 0 0 0 0 0 0 0 0 0 0 0 0 0 0 0
0 0 0 0 0 0 0 0 0 0 0 0 0 0 0 0 0 0 0 0 0 0 0 0 0 0 0 0 0 0 0 0 0 0 0 0 0 0 0 0 0 0 0 0 0
0 0 0 0 0 0 0 0 0 0 0 0 0 0 0 0 0 0 0 0 0 0 0 0 0 0 0 0 0 0 0 0 0 0 0 0 0 0 0 0 0 0 0 0 0
0 0 0 0 0 0 0 0 0 0 0 0 0 0 0 0 0 0 0 0 0 0 0 0 0 0 0 0 0 0 0 0 0 0 0 0 0 0 0 0 0 0 0 0 0
0 0 0 0 0 0 0 0 0 0 0 0 0 0 0 0 0 0 0 0 0 0 0 0 0 0 0 0 0 0 0 0 0 0 0 0 0 0 0 0 0 0 0 0 0
0 0 0 0 0 0 0 0 0 0 0 0 0 0 0 0 0 0 0 16 1 0 0 0 0 0 0 0 0 0 0 0 0 0 0 0 0 0 0 0 0 0 0 0 0
0 0 0 0 0 0 0 0 0 0 0 0 0 0 0 0 0 0 0 0 0 0 0 0 0 0 2 0 0 4 0 1 0 0 0 0 0 0 0 0 0 0 0 0 0
0 0 0 0 0 0 0 0 0 0 0 0 0 0 0 0 0 0 0 0 0 0 0 0 0 0 2 9 17 9 8 0 0 0 0 0 0 0 0 0 0 0 0 0 0
0 0 0 0 0 0 0 0 0 0 0 0 0 0 0 0 0 0 0 0 0 0 0 0 16 4 3 42 29 4 2 0 8 3 0 0 0 0 0 0 0 0 0 0 0
0 0 0 0 0 0 0 0 0 0 0 0 0 0 0 0 0 0 0 0 0 0 0 0 0 7 27 59 3 11 36 12 1 0 0 0 0 0 0 0 0 0 0 0 0
0 0 0 0 0 0 0 0 0 0 0 0 0 0 0 0 0 0 0 0 0 0 0 0 0 1 1 13 0 3 0 0 13 1 0 0 0 0 0 0 0 0 0 0 0
0 0 0 0 0 0 0 0 0 0 0 0 0 0 0 0 0 0 0 0 0 0 0 0 0 0 2 0 0 0 0 0 0 0 0 0 0 0 0 0 0 0 0 0 0
0 0 0 0 0 0 0 0 0 0 0 0 0 0 0 0 0 0 0 0 0 0 0 0 0 0 0 0 0 0 0 0 0 0 0 0 0 0 0 0 0 0 0 0 0
0 0 0 0 0 0 0 0 0 0 0 0 0 0 0 0 0 0 0 0 0 0 0 0 0 0 0 0 0 0 0 0 0 0 0 0 0 0 0 0 0 0 0 0 0
CIN
-0 -0 -0 -0 -0 -0 -0 -0 -0 -0 -0 -0 -0 -0 -0 -0 -0 -0 -0 -0 -0 -0 -0 -0 -0 -0 -0 -0 -0 -0 -0 -0 -0 -0 -47 -278 -238 -373 -468 -322 -278 -270 -167 -104 -119
-0 -0 -0 -0 -0 -0 -0 -0 -0 -0 -0 -0 -0 -0 -0 -0 -0 -0 -0 -0 -0 -0 -0 -0 -0 -0 -0 -0 -0 -0 -0 -0 -0 -0 -343 -275 -297 -281 -300 -297 -268 -226 -94 -116 -101
-0 -0 -0 -0 -0 -0 -0 -0 -0 -0 -0 -0 -0 -0 -0 -0 -0 -0 -0 -0 -0 -0 -0 -0 -0 -0 -0 -0 -0 -0 -0 -0 -26 -13 -311 -276 -301 -353 -305 -241 -301 -250 -317 -437 -429
-0 -0 -0 -0 -0 -0 -0 -0 -0 -0 -0 -0 -0 -0 -0 -0 -0 -0 -0 -0 -0 -0 -0 -0 -0 -0 -0 -0 -0 -0 -0 -0 -234 -292 -376 -321 -361 -295 -339 -135 -0 -0 -0 -542 -509
-0 -0 -0 -0 -0 -0 -0 -0 -0 -0 -0 -0 -0 -0 -0 -0 -0 -0 -0 -0 -0 -0 -0 -0 -0 -0 -0 -0 -0 -0 -0 -170 -271 -349 -440 -372 -198 -168 -0 -0 -0 -0 -0 -0 -0
-0 -0 -0 -0 -0 -0 -0 -0 -0 -0 -0 -0 -0 -0 -0 -0 -0 -0 -0 -0 -0 -0 -0 -0 -0 -0 -0 -0 -0 -0 -0 -169 -275 -303 -492 -365 -0 -0 -0 -0 -0 -0 -0 -0 -0
-0 -0 -0 -0 -0 -0 -0 -0 -0 -0 -0 -0 -0 -0 -0 -0 -0 -0 -0 -0 -0 -0 -0 -0 -0 -0 -0 -0 -0 -0 -0 -137 -174 -236 -282 -0 -0 -0 -0 -0 -0 -0 -0 -0 -0
-0 -0 -0 -0 -0 -0 -0 -0 -0 -0 -0 -0 -0 -0 -0 -0 -0 -0 -0 -0 -0 -0 -0 -0 -0 -0 -0 -0 -0 -0 -32 -0 -165 -259 -0 -70 -60 -0 -0 -0 -0 -0 -0 -0 -0
-0 -0 -0 -0 -0 -0 -0 -0 -0 -0 -0 -0 -0 -0 -0 -0 -0 -0 -0 -0 -0 -0 -0 -0 -0 -0 -0 -0 -0 -0 -0 -51 -70 -18 -30 -86 -86 -0 -0 -0 -0 -0 -0 -0 -0
-0 -0 -0 -0 -0 -0 -0 -0 -0 -0 -0 -0 -0 -0 -0 -0 -0 -0 -0 -0 -0 -0 -0 -0 -0 -0 -0 -0 -0 -0 -0 -0 -45 -127 -12 -158 -115 -0 -0 -0 -0 -0 -0 -0 -0
-0 -0 -0 -0 -0 -0 -0 -0 -0 -0 -0 -0 -0 -0 -0 -0 -0 -0 -0 -0 -0 -0 -0 -0 -0 -0 -0 -0 -0 -0 -0 -0 -0 -147 -112 -145 -100 -0 -0 -0 -0 -0 -0 -0 -0
-0 -0 -0 -0 -0 -0 -0 -0 -0 -0 -0 -0 -0 -0 -0 -0 -0 -0 -0 -0 -0 -0 -0 -0 -0 -0 -0 -0 -0 -0 -0 -0 -0 -49 -71 -34 -0 -0 -0 -0 -0 -0 -0 -0 -0
-0 -0 -0 -0 -0 -0 -0 -0 -0 -0 -0 -0 -0 -0 -0 -0 -0 -0 -0 -0 -0 -0 -0 -0 -0 -0 -0 -0 -0 -0 -0 -0 -0 -0 -0 -0 -0 -0 -0 -0 -0 -0 -0 -0 -0
-0 -0 -0 -0 -0 -0 -0 -0 -0 -0 -0 -0 -0 -0 -0 -0 -0 -0 -0 -0 -0 -0 -0 -0 -0 -0 -0 -0 -0 -0 -0 -0 -0 -0 -0 -0 -0 -0 -0 -0 -0 -0 -0 -0 -0
-0 -0 -0 -0 -0 -0 -0 -0 -0 -0 -0 -0 -0 -0 -0 -0 -0 -0 -0 -0 -0 -0 -0 -0 -0 -0 -0 -0 -0 -0 -0 -0 -0 -0 -0 -0 -0 -0 -0 -0 -0 -0 -0 -0 -0
-0 -0 -0 -0 -0 -0 -0 -0 -0 -0 -0 -0 -0 -0 -0 -0 -0 -0 -0 -0 -0 -0 -0 -0 -0 -0 -0 -0 -0 -0 -0 -0 -0 -0 -0 -0 -0 -0 -0 -0 -0 -0 -0 -0 -0
-0 -0 -0 -0 -0 -0 -0 -0 -0 -0 -0 -0 -0 -0 -0 -0 -0 -0 -0 -0 -0 -0 -0 -0 -0 -0 -0 -0 -0 -0 -0 -0 -0 -0 -0 -0 -0 -0 -0 -0 -0 -0 -0 -0 -0
-0 -0 -0 -0 -0 -0 -0 -0 -0 -0 -0 -0 -0 -0 -0 -0 -0 -0 -0 -0 -0 -0 -0 -0 -0 -0 -0 -0 -0 -0 -0 -0 -0 -0 -0 -0 -0 -0 -0 -0 -0 -0 -0 -0 -0
-0 -0 -0 -0 -0 -0 -0 -0 -0 -0 -0 -0 -0 -0 -0 -0 -0 -0 -0 -113 -19 -0 -0 -0 -0 -0 -0 -0 -0 -0 -0 -0 -0 -0 -0 -0 -0 -0 -0 -0 -0 -0 -0 -0 -0
-0 -0 -0 -0 -0 -0 -0 -0 -0 -0 -0 -0 -0 -0 -0 -0 -0 -0 -0 -0 -0 -0 -0 -24 -0 -7 -38 -0 -0 -97 -0 -11 -0 -0 -0 -0 -0 -0 -0 -0 -0 -0 -0 -0 -0
-0 -0 -0 -0 -0 -0 -0 -0 -0 -0 -0 -0 -0 -0 -0 -0 -0 -0 -0 -0 -0 -0 -0 -0 -0 -0 -50 -80 -53 -85 -87 -0 -0 -0 -0 -0 -0 -0 -0 -0 -0 -0 -0 -0 -0
-0 -0 -0 -0 -0 -0 -0 -0 -0 -0 -0 -0 -0 -0 -0 -0 -0 -0 -0 -0 -0 -0 -0 -1 -60 -21 -17 -85 -123 -125 -86 -2 -23 -46 -0 -0 -0 -0 -0 -0 -0 -0 -0 -0 -0
-0 -0 -0 -0 -0 -0 -0 -0 -0 -0 -0 -0 -0 -0 -0 -0 -0 -0 -0 -0 -0 -0 -0 -0 -0 -10 -6 -35 -30 -53 -76 -104 -93 -0 -0 -0 -0 -0 -0 -0 -0 -0 -0 -0 -0
-0 -0 -0 -0 -0 -0 -0 -0 -0 -0 -0 -0 -0 -0 -0 -0 -0 -0 -0 -0 -0 -0 -0 -0 -0 -25 -6 -9 -16 -36 -0 -0 -28 -19 -0 -0 -0 -0 -0 -0 -0 -0 -0 -0 -0
-0 -0 -0 -0 -0 -0 -0 -0 -0 -0 -0 -0 -0 -0 -0 -0 -0 -0 -0 -0 -0 -0 -0 -0 -0 -0 -68 -0 -0 -0 -0 -0 -0 -0 -0 -0 -0 -0 -0 -0 -0 -0 -0 -0 -0
-0 -0 -0 -0 -0 -0 -0 -0 -0 -0 -0 -0 -0 -0 -0 -0 -0 -0 -0 -0 -0 -0 -0 -0 -0 -0 -0 -0 -0 -0 -0 -0 -0 -0 -0 -0 -0 -0 -0 -0 -0 -0 -0 -0 -0
-0 -0 -0 -0 -0 -0 -0 -0 -0 -0 -0 -0 -0 -0 -0 -0 -0 -0 -0 -0 -0 -0 -0 -0 -0 -0 -0 -0 -0 -0 -0 -0 -0 -0 -0 -0 -0 -0 -0 -0 -0 -0 -0 -0 -0
Wind_Speed
30 29 28 28 28 28 28 27 28 28 28 28 28 28 28 28 29 21 25 7 11 10 9 16 15 15 14 14 12 10 10 4 6 5 6 7 7 9 12 12 13 6 8 8 11
29 28 28 28 27 27 27 28 27 28 27 27 27 27 27 27 26 18 17 8 3 8 8 9 11 15 16 14 12 10 9 3 7 2 4 7 7 8 10 11 12 13 13 14 12
29 28 28 28 28 27 27 27 27 27 27 27 27 26 26 25 25 16 18 13 4 8 10 11 12 14 15 14 11 10 11 7 10 1 5 8 6 5 9 10 9 11 12 8 9
28 28 28 27 27 27 27 26 26 27 26 26 26 25 25 21 19 15 21 19 6 2 8 10 11 12 15 14 14 12 13 9 11 1 6 8 6 4 7 9 8 7 6 5 7
28 27 27 27 27 26 26 26 26 26 26 25 24 24 21 22 23 19 19 13 8 4 5 10 9 10 13 15 13 13 8 11 7 2 4 3 3 4 6 8 10 5 5 3 3
27 27 27 26 26 26 26 26 26 25 25 24 23 22 21 24 17 16 13 11 8 6 6 9 10 11 13 13 13 12 8 6 4 3 1 2 1 4 3 6 7 5 5 4 3
27 27 26 26 26 26 26 25 25 25 24 23 21 20 21 25 16 17 17 12 10 7 7 6 8 10 12 15 14 9 8 7 4 6 9 2 6 7 3 2 3 5 5 5 4
27 27 26 26 25 25 25 25 25 24 23 21 19 20 24 19 19 22 14 12 11 9 10 13 7 14 14 8 13 11 12 11 13 9 8 11 10 9 2 3 2 3 5 6 6
27 27 26 25 25 25 25 24 24 23 21 20 19 20 22 20 19 19 10 11 10 10 8 9 9 12 11 10 13 15 17 16 15 13 15 16 20 10 3 3 4 3 3 5 6
27 26 25 25 24 24 24 23 21 22 19 19 20 20 19 15 23 18 14 11 13 11 12 11 12 12 13 13 19 18 19 17 17 12 15 17 20 13 9 9 7 6 4 5 6
26 26 25 24 23 23 21 20 23 21 21 23 27 28 32 24 19 14 13 11 14 14 16 16 16 16 16 17 18 15 15 13 18 15 15 17 21 20 13 14 12 9 8 7 8
26 26 24 23 22 21 19 20 21 21 27 25 26 25 26 20 21 18 10 13 15 17 17 20 26 23 19 17 18 19 20 17 21 18 16 21 23 27 18 19 17 13 12 10 9
25 25 23 22 20 18 18 20 21 25 21 23 20 20 17 9 15 19 11 13 17 19 20 23 22 19 21 21 22 22 22 22 22 21 22 24 33 28 25 22 20 17 13 11 9
24 23 21 19 17 17 19 21 27 16 18 22 22 21 16 13 16 16 12 15 17 19 17 22 25 25 24 26 23 29 24 23 21 23 29 21 35 30 26 24 22 18 15 13 10
22 20 17 15 16 17 20 28 19 18 18 24 25 18 16 14 18 22 14 14 17 17 16 21 20 21 22 24 19 28 25 22 21 24 28 26 31 31 21 23 21 20 17 14 10
20 18 15 16 15 16 26 23 18 18 19 21 24 24 19 20 20 23 18 16 18 21 24 27 23 23 24 26 23 27 27 25 24 25 35 29 28 33 25 21 20 20 18 15 12
18 16 15 16 16 22 26 19 18 19 23 25 27 27 20 24 22 24 24 22 24 28 31 31 31 28 25 31 26 25 28 34 35 33 40 30 31 34 29 27 24 18 17 16 12
19 18 17 14 14 24 21 18 19 25 23 28 27 24 21 26 24 27 27 27 24 26 30 34 38 25 21 23 27 25 26 33 40 41 43 31 38 34 33 32 29 17 14 14 13
22 23 23 21 19 19 19 21 22 26 29 27 27 24 25 27 27 29 30 27 26 27 29 31 30 26 24 25 24 27 29 27 35 35 40 37 35 30 30 27 19 14 12 13 13
21 23 25 21 20 22 21 19 21 28 26 23 26 26 30 32 32 32 29 26 31 29 27 31 39 30 29 26 23 25 25 30 29 39 43 37 36 35 34 27 20 14 12 11 10
20 23 18 21 20 24 23 22 23 30 27 27 28 28 29 30 31 31 30 28 33 34 33 30 31 35 32 31 32 29 27 25 25 29 36 40 35 28 33 22 17 14 10 9 9
22 23 28 20 25 23 25 24 24 30 28 27 27 29 31 32 33 32 31 29 32 31 32 28 31 38 34 29 26 25 26 27 31 32 27 30 34 25 21 14 11 9 7 8 7
22 22 24 23 25 25 24 27 24 31 31 31 30 30 30 31 35 32 34 31 34 35 32 32 32 38 35 30 26 26 28 31 29 29 36 34 34 27 22 17 12 7 5 7 7
20 22 26 29 25 25 25 29 30 27 27 30 28 28 30 31 30 35 39 34 41 38 33 29 33 35 38 31 28 29 27 26 27 31 34 34 38 32 25 18 17 12 11 11 8
22 22 21 26 30 28 25 28 30 30 27 30 27 31 30 33 35 35 37 41 40 36 32 29 34 28 28 30 27 26 28 28 28 30 36 34 36 34 24 24 16 11 11 10 7
20 20 23 25 24 29 29 27 28 27 25 26 29 32 30 31 31 41 38 36 36 35 36 34 42 36 39 32 29 31 31 27 27 29 32 36 40 32 24 13 9 9 7 6 6
24 22 22 27 28 27 27 24 25 26 21 24 29 30 29 28 26 19 15 15 19 27 28 29 32 33 41 32 29 32 29 27 25 27 29 33 32 31 20 14 10 7 7 5 4
Wind_Direction
321 322 324 323 322 322 319 318 315 308 304 296 296 297 297 298 295 319 301 350 338 320 310 298 301 286 280 274 281 284 292 309 340 107 69 86 70 335 32 24 14 171 250 57 78
320 322 325 323 318 315 312 310 308 303 297 297 296 299 299 298 301 273 322 359 37 345 318 310 302 285 272 270 274 272 270 271 330 61 91 110 88 70 53 39 38 27 58 82 79
320 321 316 310 306 306 306 306 306 302 298 296 296 297 298 302 297 319 319 352 87 311 311 307 301 288 273 271 270 270 265 281 313 58 106 117 77 18 56 61 51 77 80 71 64
318 313 311 307 300 302 305 309 309 304 293 292 295 294 294 308 304 334 307 322 69 8 303 303 299 289 276 271 271 277 275 284 299 139 127 127 86 39 31 36 40 59 61 57 67
309 308 306 305 301 301 309 309 306 296 287 291 296 297 309 294 284 316 324 5 49 37 314 296 295 296 286 280 275 279 266 286 296 150 141 106 91 73 21 31 50 29 7 359 22
310 305 307 306 303 302 304 304 300 294 291 298 302 308 308 284 314 321 340 360 19 16 320 298 295 296 297 293 286 282 282 290 292 150 237 194 321 344 5 50 41 20 359 352 339
310 310 307 305 304 301 299 303 301 298 297 304 313 318 305 279 314 310 317 329 339 347 339 325 310 309 309 296 301 297 275 286 262 260 279 275 283 301 116 49 35 358 353 340 322
313 311 309 305 306 301 300 302 304 301 302 308 318 319 293 310 308 292 322 324 327 326 315 303 307 299 303 327 305 295 287 266 264 259 278 272 259 297 122 142 312 330 338 342 318
314 313 311 308 305 302 299 301 304 310 317 317 318 318 296 303 314 309 313 320 330 319 315 316 315 302 309 301 297 296 283 272 269 261 274 265 275 277 214 236 273 297 319 337 336
315 316 313 310 305 301 296 306 326 319 327 326 316 311 302 312 311 313 304 306 309 318 310 301 300 296 293 288 282 284 284 279 275 245 267 258 273 290 251 263 266 277 284 310 318
310 315 312 310 309 310 322 330 323 325 324 310 297 295 280 301 316 326 319 301 301 301 292 293 287 282 284 285 291 294 295 278 280 284 253 256 267 276 265 268 269 269 272 285 300
315 319 320 321 324 334 341 334 333 337 308 310 299 302 290 305 302 307 329 305 293 289 294 290 279 284 290 287 289 290 288 281 286 280 265 269 268 277 270 268 268 265 272 274 285
319 323 327 329 333 342 342 342 341 328 320 323 334 334 327 326 309 300 323 311 297 287 289 287 288 295 290 285 286 288 286 283 279 286 282 281 277 275 275 276 272 270 270 270 266
313 322 334 345 347 349 342 351 313 8 320 326 331 336 341 339 324 316 311 308 303 294 294 295 292 287 285 283 287 285 290 286 279 279 280 274 282 278 271 269 268 262 260 258 254
337 346 -0 6 355 344 346 320 357 350 317 318 340 355 349 336 326 332 317 310 299 300 302 299 302 300 291 284 287 290 292 289 283 278 283 281 285 286 281 269 259 254 251 244 237
353 2 18 6 4 358 319 335 353 327 317 334 341 337 340 334 322 321 333 317 313 299 297 294 299 299 295 290 289 294 292 292 290 283 278 278 276 286 282 272 257 263 249 237 232
33 53 48 24 10 335 323 356 336 328 332 323 329 331 337 328 330 330 321 316 300 296 293 294 292 294 297 293 294 291 289 283 282 278 280 289 280 285 291 286 282 257 244 234 228
60 58 44 57 36 329 357 349 337 329 328 324 328 328 328 326 322 323 320 315 315 308 299 294 290 300 304 297 293 290 286 280 280 280 283 292 283 289 295 291 287 271 252 235 227
56 47 34 22 37 30 6 352 344 335 326 326 327 325 320 324 321 320 319 316 316 316 305 301 297 301 304 305 300 292 286 292 285 286 283 284 289 295 303 300 289 270 251 235 228
57 39 11 49 51 23 13 1 357 348 348 349 334 333 320 318 317 317 315 322 312 317 318 303 294 297 298 300 303 298 298 287 287 281 279 286 287 288 299 298 293 276 257 231 217
61 35 340 50 53 18 3 358 353 349 351 342 333 328 327 324 322 317 313 317 319 310 311 307 299 296 299 293 290 290 292 296 294 291 284 284 287 302 300 299 293 284 264 219 215
46 22 4 41 16 20 4 1 1 349 352 346 341 332 325 323 318 316 313 315 324 322 310 309 301 293 295 302 300 297 290 288 284 285 293 293 289 306 315 322 302 286 251 234 227
39 39 41 38 13 12 17 4 3 349 346 340 335 334 331 326 318 317 313 315 318 316 311 308 296 293 294 297 304 300 292 285 286 287 279 283 287 303 306 306 302 284 223 217 232
35 17 22 27 33 20 10 3 356 358 353 348 343 340 334 329 330 318 315 315 312 310 308 308 299 288 287 292 298 295 301 296 286 284 287 283 290 297 296 292 282 268 255 267 253
31 28 34 15 15 19 18 8 1 356 356 352 346 343 340 332 330 327 323 316 314 312 306 302 286 298 294 300 296 295 298 300 293 290 284 291 292 297 296 286 285 279 261 252 250
37 37 36 29 25 17 17 17 13 8 5 1 353 346 349 343 340 330 330 327 320 318 307 296 284 287 285 291 291 293 296 296 300 299 295 294 291 305 307 303 286 267 251 247 242
40 40 36 23 24 23 23 26 24 16 16 11 359 355 355 356 350 342 341 348 347 337 328 314 296 287 282 289 289 285 288 299 301 304 300 296 302 309 307 297 280 263 253 231 227